Weather History for Warsaw, IN

Change the Weather History Date:

Tuesday, October 23, 2012

  Actual Average Record
Temperature  
Mean Temperature 62 °F -  
Max Temperature 66 °F 61 °F 84 °F (1953)
Min Temperature 59 °F 38 °F 23 °F (1982)
Degree Days  
Heating Degree Days 2    
Growing Degree Days 12 (Base 50)    
Moisture  
Dew Point 57 °F    
Average Humidity 84    
Maximum Humidity 100    
Minimum Humidity 60    
Precipitation  
Precipitation 0.06 in - - ()
Sea Level Pressure  
Sea Level Pressure 29.97 in    
Wind  
Wind Speed 6 mph (SSW)    
Max Wind Speed 16 mph    
Max Gust Speed 24 mph    
Visibility 10 miles    
Events Rain    
Averages and records for this station are not official NWS values.
T = Trace of Precipitation, MM = Missing Value Source: NWS Daily Summary

Daily Weather History Graph

Daily Weather History Graph

Search for Another Location

Airport:

Trip Planner

Search our weather history database for the weather conditions in past years. The results will help you decide how hot, cold, wet, or windy it might be!

Date:

Astronomy

Oct. 23, 2012 Rise Set
Actual Time 8:04 AM EDT 6:49 PM EDT
Civil Twilight 7:36 AM EDT 7:18 PM EDT
Nautical Twilight 7:04 AM EDT 7:50 PM EDT
Astronomical Twilight 6:32 AM EDT 8:22 PM EDT
Moon 3:36 PM EDT (10/23) 1:52 AM EDT (10/23)
Length of Visible Light 11h 41m
Length of Day
10h 45m
Waxing Gibbous, 66% of the Moon is Illuminated
Oct 23
Waxing Gibbous
Oct 29
Full
Nov 6
Last Quarter
Nov 13
New
Nov 20
First Quarter

Hourly Weather History & Observations

Time (EDT) Temp. Dew Point Humidity Pressure Visibility Wind Dir Wind Speed Gust Speed Precip Events Conditions
12:15 AM 64.4 °F 55.4 °F 73% 29.96 in 10.0 mi South 6.9 mph - N/A   Overcast
12:55 AM 64.4 °F 55.4 °F 73% 29.95 in 10.0 mi South 5.8 mph - N/A   Overcast
1:35 AM 64.4 °F 53.6 °F 68% 29.95 in 10.0 mi SSW 5.8 mph - N/A   Overcast
2:15 AM 66.2 °F 51.8 °F 60% 29.94 in 10.0 mi SSW 6.9 mph - N/A   Overcast
2:35 AM 64.4 °F 51.8 °F 64% 29.96 in 10.0 mi West 8.1 mph - N/A   Overcast
2:55 AM 62.6 °F 53.6 °F 72% 29.96 in 10.0 mi West 6.9 mph - N/A   Overcast
3:35 AM 62.6 °F 53.6 °F 72% 29.96 in 10.0 mi SW 4.6 mph - N/A   Mostly Cloudy
3:55 AM 62.6 °F 53.6 °F 72% 29.95 in 10.0 mi SW 9.2 mph - N/A Rain Light Rain
4:15 AM 60.8 °F 55.4 °F 82% 29.95 in 10.0 mi SW 6.9 mph - N/A Rain Light Rain
4:35 AM 60.8 °F 55.4 °F 82% 29.94 in 10.0 mi SW 3.5 mph - N/A   Scattered Clouds
4:55 AM 59.0 °F 53.6 °F 82% 29.94 in 10.0 mi WSW 3.5 mph - N/A   Clear
5:15 AM 59.0 °F 55.4 °F 88% 29.95 in 10.0 mi Calm Calm - N/A   Mostly Cloudy
5:35 AM 59.0 °F 53.6 °F 82% 29.95 in 10.0 mi Calm Calm - N/A   Overcast
5:55 AM 60.8 °F 53.6 °F 77% 29.95 in 10.0 mi SSW 3.5 mph - N/A   Overcast
6:15 AM 60.8 °F 53.6 °F 77% 29.95 in 10.0 mi Calm Calm - N/A   Overcast
6:55 AM 60.8 °F 53.6 °F 77% 29.95 in 10.0 mi Calm Calm - N/A   Overcast
7:15 AM 60.8 °F 53.6 °F 77% 29.95 in 10.0 mi Calm Calm - N/A   Overcast
7:35 AM 60.8 °F 53.6 °F 77% 29.95 in 10.0 mi SSW 3.5 mph - N/A   Overcast
7:55 AM 60.8 °F 53.6 °F 77% 29.95 in 10.0 mi SSW 3.5 mph - N/A   Overcast
8:15 AM 60.8 °F 53.6 °F 77% 29.96 in 10.0 mi SSW 3.5 mph - N/A   Overcast
8:55 AM 60.8 °F 53.6 °F 77% 29.99 in 10.0 mi SW 5.8 mph - N/A   Overcast
9:35 AM 62.6 °F 53.6 °F 72% 30.01 in 10.0 mi WSW 13.8 mph 24.2 mph N/A   Overcast
9:55 AM 60.8 °F 55.4 °F 82% 30.02 in 10.0 mi SW 12.7 mph 21.9 mph N/A Rain Light Rain
10:15 AM 59.0 °F 55.4 °F 88% 30.01 in 10.0 mi SW 5.8 mph - N/A Rain Light Rain
10:55 AM 59.0 °F 59.0 °F 100% 30.00 in 5.0 mi South 8.1 mph - 0.02 in Rain Rain
11:15 AM 60.8 °F 59.0 °F 94% 29.98 in 7.0 mi SSW 8.1 mph - 0.02 in Rain Rain
11:35 AM 60.8 °F 59.0 °F 94% 29.97 in 10.0 mi SSW 10.4 mph - 0.03 in Rain Rain
11:55 AM 62.6 °F 59.0 °F 88% 29.94 in 10.0 mi South 5.8 mph - 0.04 in Rain Light Rain
12:15 PM 62.6 °F 59.0 °F 88% 29.95 in 10.0 mi South 8.1 mph - N/A Rain Light Rain
12:35 PM 64.4 °F 59.0 °F 83% 29.98 in 10.0 mi West 16.1 mph - N/A   Light Drizzle
12:55 PM 62.6 °F 59.0 °F 88% 29.99 in 10.0 mi WSW 12.7 mph 21.9 mph N/A   Clear
1:15 PM 62.6 °F 59.0 °F 88% 30.00 in 10.0 mi WSW 15.0 mph 21.9 mph N/A   Scattered Clouds
1:35 PM 62.6 °F 59.0 °F 88% 30.00 in 10.0 mi SW 10.4 mph 23.0 mph N/A   Mostly Cloudy
1:55 PM 62.6 °F 59.0 °F 88% 29.97 in 10.0 mi South 9.2 mph 17.3 mph N/A   Mostly Cloudy
2:15 PM 62.6 °F 59.0 °F 88% 29.97 in 10.0 mi SSW 8.1 mph - N/A   Scattered Clouds
2:35 PM 62.6 °F 59.0 °F 88% 29.96 in 10.0 mi SSW 8.1 mph - N/A   Scattered Clouds
2:55 PM 62.6 °F 59.0 °F 88% 29.96 in 10.0 mi SSW 6.9 mph - N/A   Clear
3:15 PM 64.4 °F 59.0 °F 83% 29.96 in 10.0 mi SW 6.9 mph - N/A   Clear
3:35 PM 64.4 °F 59.0 °F 83% 29.95 in 10.0 mi SW 4.6 mph - N/A   Scattered Clouds
3:55 PM 64.4 °F 59.0 °F 83% 29.95 in 10.0 mi WSW 4.6 mph - N/A   Scattered Clouds
4:15 PM 64.4 °F 59.0 °F 83% 29.94 in 10.0 mi SSW 4.6 mph - N/A   Mostly Cloudy
4:35 PM 64.4 °F 59.0 °F 83% 29.94 in 10.0 mi SW 6.9 mph - N/A   Mostly Cloudy
4:55 PM 64.4 °F 59.0 °F 83% 29.95 in 10.0 mi SW 6.9 mph - N/A   Scattered Clouds
5:15 PM 66.2 °F 59.0 °F 78% 29.95 in 10.0 mi SSW 11.5 mph 16.1 mph N/A   Scattered Clouds
5:35 PM 64.4 °F 57.2 °F 77% 29.96 in 10.0 mi SSW 6.9 mph - N/A   Scattered Clouds
5:55 PM 62.6 °F 57.2 °F 82% 29.97 in 10.0 mi SW 5.8 mph - N/A   Mostly Cloudy
6:15 PM 62.6 °F 57.2 °F 82% 29.98 in 10.0 mi SW 3.5 mph - N/A   Overcast
6:35 PM 62.6 °F 57.2 °F 82% 29.98 in 10.0 mi South 3.5 mph - N/A   Overcast
6:55 PM 62.6 °F 57.2 °F 82% 29.98 in 10.0 mi SW 3.5 mph - N/A   Overcast
7:15 PM 62.6 °F 59.0 °F 88% 29.98 in 10.0 mi SSW 3.5 mph - N/A   Overcast
7:35 PM 60.8 °F 59.0 °F 94% 29.99 in 10.0 mi South 4.6 mph - N/A   Mostly Cloudy
7:55 PM 60.8 °F 59.0 °F 94% 29.99 in 10.0 mi Calm Calm - N/A   Overcast
8:15 PM 62.6 °F 59.0 °F 88% 30.00 in 10.0 mi Calm Calm - N/A   Overcast
8:35 PM 60.8 °F 59.0 °F 94% 29.99 in 10.0 mi Calm Calm - N/A Rain Light Rain
8:55 PM 60.8 °F 59.0 °F 94% 30.00 in 10.0 mi Calm Calm - N/A   Overcast
9:15 PM 60.8 °F 59.0 °F 94% 30.00 in 10.0 mi Calm Calm - N/A   Overcast
9:35 PM 60.8 °F 59.0 °F 94% 29.99 in 10.0 mi Calm Calm - N/A   Overcast
9:55 PM 60.8 °F 59.0 °F 94% 29.99 in 10.0 mi Calm Calm - N/A   Overcast
10:15 PM 60.8 °F 59.0 °F 94% 30.00 in 10.0 mi Calm Calm - N/A   Overcast
10:35 PM 60.8 °F 59.0 °F 94% 30.00 in 10.0 mi Calm Calm - N/A   Overcast
10:55 PM 60.8 °F 59.0 °F 94% 30.00 in 10.0 mi Calm Calm - N/A   Overcast
11:15 PM 60.8 °F 59.0 °F 94% 30.00 in 10.0 mi Calm Calm - N/A   Overcast
11:35 PM 60.8 °F 59.0 °F 94% 30.00 in 10.0 mi ESE 3.5 mph - N/A   Overcast
11:55 PM 60.8 °F 59.0 °F 94% 30.00 in 10.0 mi SE 3.5 mph - N/A   Overcast